Regional Weather Roundup
Issued by NWS

Home | Current Version | Previous Version | Graphics & Text | Print | Product List | Glossary On
Versions: 1 2 3 4 5 6 7 8 9 10 11 12 13 14 15 16 17 18 19 20 21 22 23 24 25 26 27 28 29 30 31 32 33 34 35 36 37 38 39 40 41 42 43 44 45 46 47 48 49 50
000
ASUS45 KTFX 111010
RWRMT
MONTANA REGIONAL WEATHER ROUNDUP
NATIONAL WEATHER SERVICE GREAT FALLS MT
300 AM MST THU FEB 11 2016

NOTE: "FAIR" INDICATES FEW OR NO CLOUDS BELOW 12000 FEET WITH NO
SIGNIFICANT WEATHER AND/OR OBSTRUCTIONS TO VISIBILITY.

MTZ001>007-043-111100-
WEST OF THE DIVIDE

CITY           SKY/WX    TMP DP  RH WIND       PRES   REMARKS
KALISPELL      CLOUDY    31  29  92 W3        30.21R
MISSOULA       CLOUDY    34  31  88 CALM      30.25R
BUTTE          CLOUDY    25  19  78 NW6       30.22R WCI  18
MULLAN PASS    CLOUDY    32  31  96 W6        30.24R WCI  26
ANACONDA         N/A     45  25  45 S12G17    30.20R
DEER LODGE       N/A     36  27  69 CALM      30.20R
HAMILTON         N/A     48  30  49 SE9       30.24R
PLAINS           N/A     34  30  85 S1        30.23R
THOMPSON FALLS   N/A     32  31  96 CALM      30.29R
$$

MTZ008-052>055-111100-
SOUTHWEST MONTANA

CITY           SKY/WX    TMP DP  RH WIND       PRES   REMARKS
BOZEMAN        CLOUDY    32  27  81 VRB5      30.18S
DILLON         CLOUDY    34  25  69 SW21      30.23F WCI  22
ENNIS          CLEAR     37  23  56 S20G26    30.27R WCI  27
THREE FORKS      N/A     33  33 100 CALM      30.14S
TWIN BRIDGES     N/A     40  24  53 S7        30.19R
$$

MTZ009-010-012-014-046-048-049-054-111100-
EAST SLOPES AND CENTRAL MONTANA

CITY           SKY/WX    TMP DP  RH WIND       PRES   REMARKS
CUT BANK       CLEAR     40  27  59 W26G32    30.01F
GREAT FALLS    CLOUDY    43  28  55 W9        30.08R
HELENA         CLOUDY    36  29  75 MISG      30.15R
CHOTEAU          N/A     48  23  37 NW12      30.11R
CONRAD           N/A     46  31  56 W13       30.08R
$$

MTZ011-013-016-021-045-047-050-051-111100-
NORTH CENTRAL MONTANA

CITY           SKY/WX    TMP DP  RH WIND       PRES   REMARKS
HAVRE          CLOUDY    25  25 100 W7        29.99R FOG     WCI  17
LEWISTOWN      CLEAR     42  30  62 NW10      30.02R
N BAR RANCH      N/A     46  27  46 NW13G23   30.00F
CHINOOK          N/A     32  30  93 CALM      29.98S
$$

MTZ017>020-022>027-061-062-111100-
NORTHEAST MONTANA

CITY           SKY/WX    TMP DP  RH WIND       PRES   REMARKS
GLASGOW        CLOUDY    29  25  85 SE16      29.99F WCI  17
JORDAN           N/A     32  31  96 NE6       29.98S WCI  26
SIDNEY         CLOUDY    30  25  80 CALM      30.06F
WOLF POINT     LGT SNOW  29  25  85 E9        30.04F FOG     WCI  20
PLENTYWOOD       N/A     23  21  93 E3        30.06F VSB 1
POPLAR           N/A     27  23  86 E6        30.07S VSB 1/2 WCI  20
SCOBEY           N/A     23  15  71 N3        30.01F
$$

MTZ028>42-056>058-111100-
SOUTHCENTRAL AND SOUTHEAST MONTANA

CITY           SKY/WX    TMP DP  RH WIND       PRES   REMARKS
BAKER          CLOUDY    31  27  85 SE7       30.00F WCI  24
BILLINGS       CLOUDY    47  23  38 SW10      30.02S
LIVINGSTON     CLOUDY    48  21  34 SW25      30.13S
MILES CITY     CLOUDY    33  29  85 SE6       29.96F WCI  28
EKALAKA          N/A     31  27  85 SE10      29.94F WCI  22
FORSYTH          N/A     32  30  93 CALM      29.98F
LAUREL           N/A     43  19  38 SW1       30.02S
ROUNDUP          N/A     52  23  32 W18       29.91R
$$

REGIONAL REPORTS...DAKOTAS

CITY           SKY/WX    TMP DP  RH WIND       PRES   REMARKS
WILLISTON      LGT SNOW  26  23  88 E3        30.08F FOG
MINOT          CLOUDY    15   6  67 CALM      30.15S
DICKINSON      CLOUDY    25  22  88 SE6       30.04S WCI  18
BEACH          FLURRIES  28  28 100 E6        30.04F WCI  22
CROSBY         LGT SNOW  18  18 100 E6        30.13S WCI   9
TIOGA          LGT SNOW  18  18 100 E5        30.13F
WATFORD CITY   MIX PCPN  23  19  86 SE8       30.08F WCI  14
BISMARCK       CLOUDY    19  12  74 SE5       30.16F
GRAND FORKS    PTCLDY     2  -4  76 CALM      30.29R
FARGO          CLOUDY     1  -4  79 W3        30.29R
BUFFALO SD       N/A     31  28  89 S9        29.96F WCI  23
RAPID CITY     CLOUDY    28  26  92 S12       30.04F FOG     WCI  18
$$

REGIONAL REPORTS...WYOMING/IDAHO/WASHINGTON

CITY           SKY/WX    TMP DP  RH WIND       PRES   REMARKS
GILLETTE       CLOUDY    43  23  45 SW16      30.01F
SHERIDAN       CLOUDY    39  26  59 CALM      30.00F
BUFFALO WY     CLOUDY    43  22  43 SW3       30.04S
CODY           CLOUDY    48  19  32 NE6       30.08S
YELLOWSTONE LA   N/A     23  18  81 CALM      30.33F
IDAHO FALLS    CLOUDY    17  14  88 N8        30.41S WCI   7
SALMON         CLOUDY    16  10  79 CALM      30.40R
BOISE          CLEAR     30  28  92 E3        30.41S FOG
SPOKANE        CLOUDY    35  33  92 S6        30.28S FOG     WCI  30
$$

REGIONAL REPORTS...ALBERTA

CITY           SKY/WX    TMP DP  RH WIND       PRES   REMARKS
EDMONTON       CLOUDY    21  18  86 E6        30.06S WCI  14
CALGARY        FOG       28  28 100 N7        29.99R VSB 3/4 WCI  21
LETHBRIDGE     CLEAR     25  23  93 N7        30.00R FOG     WCI  17
MEDICINE HAT   MOCLDY    32  32 100 CALM      29.98R
WATERTON GATE    N/A     45  25  45 W21G33      N/A
CARDSTON         N/A     46  23  39 W22G31      N/A
MILK RIVER       N/A     37  28  70 W16G22      N/A  WCI  28
ONEFOUR          N/A     30  28  93 NE2         N/A
$$

REGIONAL REPORTS...SASKATCHEWAN

CITY           SKY/WX    TMP DP  RH WIND       PRES   REMARKS
SWIFT CURRENT  LGT SNOW  19  19 100 E14       30.00R WCI   6
REGINA         FLURRIES  16  12  86 E3        30.13S
SASKATOON      CLOUDY    10   9  92 E12       30.20R WCI  -4
CYPRESS HILLS    N/A     27  25  93 SW5         N/A
VAL MARIE        N/A     28  27  93 E5          N/A
ASSINIBOIA       N/A     18  16  93 E7          N/A  WCI   8
$$



USA.gov is the U.S. government's official web portal to all federal, state and local government web resources and services.